Tracking 22780 objects as of 11-Apr-2021
HD Live streaming from Space Station
objects crossing your sky now

USA 65

Track USA 65 now!
USA 65 is classified as:


NORAD ID: 20929
Int'l Code: 1990-095A
Perigee: 36,282.2 km
Apogee: 36,372.2 km
Inclination: 15.1 °
Period: 1,463.4 minutes
Semi major axis: 42698 km
RCS: Unknown
Launch date: November 13, 1990
Source: United States (US)
Launch site: AIR FORCE EASTERN TEST RANGE (AFETR)
aabbcc
Your satellite tracking list
Your tracking list is empty




NASA's NSSDC Master Catalog

Two Line Element Set (TLE):
1 20929U 90095A   21100.08164313 -.00000204  00000-0  00000-0 0  9992
2 20929  15.1341 358.1320 0010540  38.7853 321.2559  0.98398453  6827
Source of the keplerian elements: McCants